Terug naar catalogus

ELEKTRON 1 DEB *

ActiefUNKNOWN
NORAD 18589·DEBRIS·🇷🇺 Russia

Gelanceerd Jan 30, 1964 vanaf Baikonur Cosmodrome

Loading…

Volgende Passages (komende 24 uur)

TLE

VersSource: Space-Track

Epoch: Sep 14, 2026, 03:46 UTC

1 18589U 64006N   26257.15720978  .00017064  00000-0  69853-1 0  9998
2 18589  58.9529 174.4544 2078966  83.0256 300.0956  9.98029425447862

Volg ELEKTRON 1 DEB * in realtime met AllMySat

Download on the App Store